Rbgn^[z[y[W
メイン
   新天体発見情報
     Comet C/2022 N1 (Attard-Maury)
投稿するにはまず登録を

スレッド表示 | 新しいものから 前のトピック | 次のトピック | 下へ
投稿者 スレッド
佐藤裕久
投稿日時: 2022-7-13 21:06
モデレータ
登録日: 2005-6-12
居住地: 日本
投稿: 2445
オンライン
Comet C/2022 N1 (Attard-Maury)

Alain Mauryの通報によると、7月2日、チリのSan Pedro de Atacamaにある MAP, 0.28-m f/2.2 
Schmidt 反射望遠鏡とObservatorio Panameno, 40-cm 反射望遠鏡で得た画像から彗星を発見
した。この天体は、3".1のシーイングで5".2(半値全幅:FWHM)のコマがある。
小惑星センターのPCCP webpageに公表後、R. Weryk (西オンタリオ大学,物理および天文学科:
6月29.6日UT, HaleakalaにあるPan-STARRS2の1.8-m Ritchey-Chretien 反射望遠鏡, 3枚45-秒
のwバンドサーベイ画像では、1".4のシーイングで、2".2(FWHM)の集光した頭部が見え、p.a. 
240-270°にわたって約4"の広い尾がある)や佐藤英貴氏(東京都文京区,7月3.4日, 24枚のスタ
ック,0.43-m f/6.8 アストログラフ, Mayhill近郊, ニューメキシコ州,  米国,遠隔操作: 強く
集光した10"のコマが見え、p.a. 220-300°に15"の扇のような尾がある。5".7の円形範囲で
測定した光度は18.8等であった)らによって彗星状と観測された。

彗星機能の報告は次のとおり、

OC   Date        Reporter           Coma    Tail    PA          Exposures
F52  2022-06-29  R. Weryk           0".8     4"     240-270     3x45s
H06  2022-07-03  H. Sato           10"      15"     220-300    24x30s
L87  2022-07-04  J. Camarasa       11"
G40  2022-07-05  B. Lutkenhoner     7"                         18x50s
G40  2022-07-05  N. Paul           10"                         34x50s
X02  2022-07-06  E. Guido          10"                         67x30s

発見位置は次のとおり、

     2022 UT             R.A. (2000) Decl.       Mag.   Observer
     July  2.32220   22 38 39.68   -11 45 46.5   17.2   Maury
           2.32787   22 38 38.10   -11 45 50.4   18.4     "
           2.33355   22 38 36.42   -11 45 55.9   18.1     "
           2.40167   22 38 17.07   -11 47 00.8   20.0     "
           2.40684   22 38 15.55   -11 47 06.2   18.5     "
           2.41201   22 38 13.99   -11 47 11.6   18.8     "

MPCの楕円軌道要素、位置推算表は次のとおり、

Orbital elements:
    C/2022 N1 (Attard-Maury)                                                    
Epoch 2022 Aug. 9.0 TT = JDT 2459800.5                                          
T 2022 Sept. 10.48573 TT                                Rudenko                 
q   1.4799460            (2000.0)            P               Q                  
n   0.00644619     Peri.   41.31146     -0.14457719     -0.96383038             
a  28.5935041      Node   301.84869     -0.96290941     +0.08494704             
e   0.9482419      Incl.  164.71760     -0.22782210     +0.25261632             
P 153                                                                           
From 89 observations 2022 June 29-July 7, mean residual 0".6.                   
                                                                                
Ephemeris:
Date    TT    R. A. (2000) Decl.     Delta      r    Elong.  Phase   m1
2022 06 08    23 35 01.3 -08 28 53   1.7332  1.9468    86.0    31.3  21.0
...
2022 06 23    23 11 04.1 -09 50 55   1.2602  1.8273   106.3    32.3  20.0
...
2022 07 01    22 44 35.5 -11 25 21   1.0196  1.7681   120.5    29.7  19.4
...
2022 07 07    22 12 47.5 -13 10 08   0.8563  1.7262   134.1    25.0  18.9
2022 07 08    22 06 06.0 -13 30 30   0.8315  1.7194   136.7    23.9  18.9
2022 07 09    21 58 56.5 -13 51 35   0.8075  1.7127   139.5    22.7  18.8
...
2022 07 15    21 04 53.5 -16 04 34   0.6870  1.6740   158.3    13.0  18.3
...
2022 07 23    19 24 48.5 -17 54 32   0.6172  1.6268   169.5     6.5  18.0
...
2022 08 07    16 41 11.9 -14 13 35   0.8107  1.5536   116.3    35.8  18.4

(MPEC 2022-N47、CBET 5147)

スレッド表示 | 新しいものから 前のトピック | 次のトピック | トップ

投稿するにはまず登録を
 
© 1999 Tsutomu Seki.